Powrót do katalogu

GLOBAL-34

AktywnyŁącznośćVLEO
NORAD 68098·PAYLOAD·🇺🇸 United States

Wystrzelony Mar 5, 2026 z Rocket Lab Launch Complex 1

Loading…

Następne Przeloty (najbliższe 24 godziny)

TLE

ŚwieżeSource: Space-Track

Epoka: Sep 14, 2026, 04:41 UTC

1 68098U 26043A   26257.19532199  .00008055  00000-0  24598-3 0  9996
2 68098  42.0208  65.5313 0002971 227.0670 132.9920 15.34128007 29496

Śledź GLOBAL-34 w czasie rzeczywistym z AllMySat

Download on the App Store